When you browse on this site, cookies collect data to enhance your experience and personalize the content and advertising you see.
Visit our Privacy Policy to learn more. By continuing to use the site, you agree to this use of cookies and data.
  • En España
  • Lista de países
  • Para 7 días
  • Temperatura del agua
  • Mapa Satelital
  • El tiempo en el mapa
  • Informadores
  • user-avatar
    Iniciar sesión

    Tiempo cada hora Kurhan

    Hoy, 23 Marzo, Sábado

    Tiempo Temperatura Precipitaciones Viento Presión Humedad
    00:00 +2°C° 0.8 mm 8 mps 736 mmHg 77%
    01:00 +2°C° 0 mm 7 mps 736 mmHg 77%
    02:00 0°C° 0 mm 7 mps 736 mmHg 77%
    03:00 -2°C° 0 mm 7 mps 735 mmHg 77%
    04:00 -2°C° 0 mm 6 mps 735 mmHg 77%
    05:00 -3°C° 0 mm 6 mps 735 mmHg 77%
    06:00 -3°C° 0 mm 6 mps 735 mmHg 77%
    07:00 -3°C° 0 mm 6 mps 736 mmHg 73%
    08:00 -2°C° 0 mm 7 mps 736 mmHg 69%
    09:00 -2°C° 0 mm 7 mps 736 mmHg 65%
    10:00 -1°C° 0 mm 7 mps 736 mmHg 64%
    11:00 -1°C° 0 mm 7 mps 736 mmHg 64%
    12:00 0°C° 0 mm 7 mps 736 mmHg 64%
    13:00 0°C° 0.2 mm 7 mps 736 mmHg 67%
    14:00 0°C° 0.2 mm 7 mps 736 mmHg 71%
    15:00 0°C° 0.2 mm 7 mps 736 mmHg 74%
    16:00 -1°C° 0.5 mm 7 mps 736 mmHg 78%
    17:00 -1°C° 0.5 mm 6 mps 736 mmHg 81%
    18:00 -1°C° 0.5 mm 6 mps 737 mmHg 85%
    19:00 -2°C° 0.4 mm 6 mps 737 mmHg 86%
    20:00 -2°C° 0.4 mm 6 mps 737 mmHg 87%
    21:00 -2°C° 0.4 mm 7 mps 738 mmHg 88%
    22:00 -2°C° 0.2 mm 6 mps 738 mmHg 88%
    23:00 -3°C° 0.2 mm 6 mps 738 mmHg 88%

    Mañana, 24 Marzo, Domingo

    Tiempo Temperatura Precipitaciones Viento Presión Humedad
    00:00 -3°C° 0.2 mm 6 mps 738 mmHg 89%
    01:00 -3°C° 0.1 mm 6 mps 738 mmHg 89%
    02:00 -3°C° 0.1 mm 6 mps 738 mmHg 89%
    03:00 -3°C° 0.1 mm 6 mps 739 mmHg 90%
    04:00 -2°C° 0.1 mm 5 mps 739 mmHg 90%
    05:00 -2°C° 0.1 mm 5 mps 739 mmHg 90%
    06:00 -2°C° 0.1 mm 5 mps 739 mmHg 90%
    07:00 -2°C° 0 mm 5 mps 739 mmHg 90%
    08:00 -2°C° 0 mm 5 mps 740 mmHg 89%
    09:00 -1°C° 0 mm 5 mps 740 mmHg 88%
    10:00 -1°C° 0 mm 5 mps 740 mmHg 85%
    11:00 0°C° 0 mm 5 mps 740 mmHg 82%
    12:00 0°C° 0 mm 4 mps 740 mmHg 79%
    13:00 +1°C° 0.1 mm 4 mps 740 mmHg 75%
    14:00 +1°C° 0.1 mm 5 mps 740 mmHg 72%
    15:00 +1°C° 0.1 mm 5 mps 740 mmHg 68%
    16:00 +1°C° 0 mm 4 mps 740 mmHg 70%
    17:00 +1°C° 0 mm 4 mps 740 mmHg 71%
    18:00 +2°C° 0 mm 3 mps 740 mmHg 72%
    19:00 +2°C° 0 mm 3 mps 740 mmHg 74%
    20:00 +2°C° 0 mm 2 mps 740 mmHg 76%
    21:00 +2°C° 0 mm 2 mps 740 mmHg 78%
    22:00 +2°C° 0 mm 2 mps 740 mmHg 79%
    23:00 +1°C° 0 mm 2 mps 740 mmHg 80%

    Pasado mañana, 25 Marzo, Lunes

    Tiempo Temperatura Precipitaciones Viento Presión Humedad
    00:00 +1°C° 0 mm 2 mps 740 mmHg 81%
    01:00 +1°C° 0 mm 2 mps 739 mmHg 81%
    02:00 +1°C° 0 mm 2 mps 739 mmHg 81%
    03:00 +2°C° 0 mm 2 mps 739 mmHg 81%
    04:00 +1°C° 0 mm 2 mps 739 mmHg 81%
    05:00 +1°C° 0 mm 2 mps 739 mmHg 81%
    06:00 +1°C° 0 mm 2 mps 739 mmHg 81%
    07:00 +2°C° 0 mm 2 mps 739 mmHg 79%
    08:00 +3°C° 0 mm 2 mps 739 mmHg 77%
    09:00 +4°C° 0 mm 2 mps 739 mmHg 75%
    10:00 +5°C° 0 mm 2 mps 739 mmHg 70%
    11:00 +6°C° 0 mm 2 mps 739 mmHg 64%
    12:00 +7°C° 0 mm 2 mps 739 mmHg 59%
    13:00 +7°C° 0 mm 2 mps 739 mmHg 57%
    14:00 +7°C° 0 mm 2 mps 739 mmHg 54%
    15:00 +9°C° 0 mm 1 mps 739 mmHg 52%
    16:00 +9°C° 0 mm 1 mps 739 mmHg 54%
    17:00 +8°C° 0 mm 1 mps 739 mmHg 56%
    18:00 +7°C° 0 mm 0 mps 739 mmHg 57%
    19:00 +7°C° 0 mm 0 mps 739 mmHg 61%
    20:00 +7°C° 0 mm 1 mps 739 mmHg 64%
    21:00 +7°C° 0 mm 1 mps 740 mmHg 67%
    22:00 +7°C° 0 mm 1 mps 739 mmHg 71%
    23:00 +5°C° 0 mm 2 mps 739 mmHg 75%

    26 Marzo, Martes

    Tiempo Temperatura Precipitaciones Viento Presión Humedad
    00:00 +5°C° 0 mm 2 mps 739 mmHg 79%
    01:00 +5°C° 0 mm 2 mps 739 mmHg 80%
    02:00 +3°C° 0 mm 3 mps 739 mmHg 81%
    03:00 +3°C° 0 mm 3 mps 739 mmHg 82%
    04:00 +3°C° 0 mm 3 mps 739 mmHg 81%
    05:00 +3°C° 0 mm 4 mps 739 mmHg 81%
    06:00 +3°C° 0 mm 4 mps 739 mmHg 81%
    07:00 +2°C° 0 mm 5 mps 739 mmHg 75%
    08:00 +3°C° 0 mm 6 mps 739 mmHg 70%
    09:00 +4°C° 0 mm 6 mps 739 mmHg 65%
    10:00 +5°C° 0 mm 7 mps 739 mmHg 62%
    11:00 +6°C° 0 mm 7 mps 739 mmHg 58%
    12:00 +8°C° 0 mm 7 mps 739 mmHg 55%
    13:00 +8°C° 0.1 mm 7 mps 739 mmHg 57%
    14:00 +8°C° 0.1 mm 6 mps 738 mmHg 58%
    15:00 +8°C° 0.1 mm 6 mps 738 mmHg 60%
    16:00 +8°C° 0 mm 5 mps 737 mmHg 60%
    17:00 +8°C° 0 mm 5 mps 737 mmHg 61%
    18:00 +8°C° 0 mm 5 mps 737 mmHg 61%
    19:00 +7°C° 0.2 mm 5 mps 737 mmHg 64%
    20:00 +6°C° 0.2 mm 5 mps 737 mmHg 67%
    21:00 +4°C° 0.2 mm 6 mps 737 mmHg 70%
    22:00 +5°C° 0.9 mm 5 mps 737 mmHg 75%
    23:00 +5°C° 0.9 mm 5 mps 736 mmHg 79%

    27 Marzo, Miércoles

    Tiempo Temperatura Precipitaciones Viento Presión Humedad
    00:00 +3°C° 0.9 mm 5 mps 736 mmHg 84%
    01:00 +4°C° 0.5 mm 4 mps 736 mmHg 83%
    02:00 +4°C° 0.5 mm 3 mps 737 mmHg 82%
    03:00 +4°C° 0.5 mm 3 mps 737 mmHg 81%
    04:00 +3°C° 0 mm 3 mps 737 mmHg 81%
    05:00 +1°C° 0 mm 4 mps 737 mmHg 81%
    06:00 +1°C° 0 mm 5 mps 738 mmHg 81%
    07:00 +1°C° 0 mm 6 mps 739 mmHg 72%
    08:00 +1°C° 0 mm 6 mps 739 mmHg 64%
    09:00 +1°C° 0 mm 6 mps 740 mmHg 55%
    10:00 +2°C° 0 mm 6 mps 740 mmHg 50%
    11:00 +3°C° 0 mm 6 mps 741 mmHg 45%
    12:00 +5°C° 0 mm 5 mps 741 mmHg 39%
    13:00 +5°C° 0 mm 5 mps 741 mmHg 38%
    14:00 +6°C° 0 mm 5 mps 741 mmHg 36%
    15:00 +6°C° 0 mm 5 mps 741 mmHg 34%
    16:00 +6°C° 0 mm 5 mps 741 mmHg 37%
    17:00 +5°C° 0 mm 5 mps 741 mmHg 40%
    18:00 +5°C° 0 mm 5 mps 741 mmHg 43%
    19:00 +3°C° 0 mm 5 mps 742 mmHg 49%
    20:00 +3°C° 0 mm 4 mps 742 mmHg 55%
    21:00 +1°C° 0 mm 4 mps 742 mmHg 61%
    22:00 +1°C° 0 mm 4 mps 742 mmHg 65%
    23:00 +1°C° 0 mm 3 mps 743 mmHg 69%

    28 Marzo, Jueves

    Tiempo Temperatura Precipitaciones Viento Presión Humedad
    00:00 0°C° 0 mm 3 mps 743 mmHg 73%
    01:00 0°C° 0 mm 3 mps 743 mmHg 74%
    02:00 -1°C° 0 mm 3 mps 743 mmHg 75%
    03:00 -1°C° 0 mm 3 mps 743 mmHg 76%
    04:00 -2°C° 0 mm 3 mps 744 mmHg 75%
    05:00 -2°C° 0 mm 3 mps 744 mmHg 73%
    06:00 -2°C° 0 mm 3 mps 744 mmHg 71%
    07:00 -2°C° 0 mm 4 mps 745 mmHg 66%
    08:00 -2°C° 0 mm 4 mps 745 mmHg 60%
    09:00 -1°C° 0 mm 5 mps 745 mmHg 55%
    10:00 0°C° 0 mm 5 mps 746 mmHg 55%
    11:00 +1°C° 0 mm 5 mps 746 mmHg 55%
    12:00 +2°C° 0 mm 5 mps 746 mmHg 56%
    13:00 +2°C° 0 mm 5 mps 746 mmHg 54%
    14:00 +3°C° 0 mm 5 mps 746 mmHg 52%
    15:00 +3°C° 0 mm 6 mps 746 mmHg 51%
    16:00 +3°C° 0 mm 5 mps 746 mmHg 52%
    17:00 +2°C° 0 mm 5 mps 746 mmHg 53%
    18:00 +2°C° 0 mm 5 mps 746 mmHg 54%
    19:00 +1°C° 0 mm 4 mps 746 mmHg 55%
    20:00 0°C° 0 mm 4 mps 747 mmHg 57%
    21:00 +1°C° 0 mm 3 mps 747 mmHg 58%
    22:00 0°C° 0 mm 3 mps 747 mmHg 59%
    23:00 -1°C° 0 mm 3 mps 747 mmHg 59%
    Mostrar más